Flag for United Kingdom Weather past 2 weeks in Sheffield, England, United Kingdom

Now
52 °F

Partly sunny.


Feels Like: 51 °F
Forecast: 49 / 61 °F
Wind: 3 mph from North

Location: Manchester Airport

Current Time: Sep 3, 2015 at 8:38:27 PM

Latest Report: Sep 3, 2015 at 8:20 PM


Visibility: N/A

Pressure: 30.01 "Hg

Humidity: 88%

Dew point: 48 °F

Location of SheffieldLocation

Historic Weather in Sheffield — Graph

°F

Sheffield temperature yesterday

Maximum temperature yesterday: 61 °F (at 11:50 AM)
Minimum temperature yesterday: 48 °F (at 1:50 AM)
Average temperature yesterday: 53 °F

Past Weeks' High & Low Weather Summary

 TemperatureHumidityPressure
High77 °F (Aug 23, 1:20 PM)100% (Aug 19, 8:20 PM)30.09 "Hg (Aug 19, 8:20 PM)
Low46 °F (Sep 3, 6:20 AM)43% (Aug 27, 4:50 PM)29.45 "Hg (Aug 23, 1:50 PM)
Average59 °F81%29.87 "Hg
* Reported Aug 19 7:20 PM — Sep 3 7:20 PM, Sheffield, Weather by CustomWeather, © 2015

Note: Actual official high and low records may vary slightly from our data, if they occured in-between our weather recording intervals... More about our weather records

Advertising

Sheffield weather history for previous 24 hours

 ConditionsComfort  
Time TempWeatherWind HumidityBarometerVisibility
7:20 PM
Thu, Sep 3
54 °FPartly sunny.2 mph82%30.01 "HgN/A
6:50 PM54 °FPartly sunny.3 mph82%30.01 "HgN/A
6:20 PM54 °FLight rain. Partly sunny.6 mph77%30.01 "HgN/A
5:50 PM55 °FLight rain. Partly sunny.6 mph67%30.01 "HgN/A
5:20 PM55 °FPartly sunny.6 mph67%30.01 "HgN/A
4:50 PM55 °FPartly sunny.7 mph67%30.01 "HgN/A
4:20 PM55 °FPartly sunny.7 mph67%30.01 "HgN/A
3:50 PM57 °FPartly sunny.10 mph55%30.01 "HgN/A
3:20 PM57 °FPassing clouds.8 mph55%30.01 "HgN/A
2:50 PM55 °FBroken clouds.9 mph63%30.01 "HgN/A
2:20 PM57 °FPartly sunny.6 mph59%30.01 "HgN/A
1:50 PM55 °FBroken clouds.8 mph63%29.98 "HgN/A
1:20 PM55 °FScattered clouds.10 mph67%29.98 "HgN/A
12:50 PM55 °FBroken clouds.12 mph63%29.98 "HgN/A
12:20 PM55 °FScattered clouds.6 mph63%29.98 "HgN/A
11:50 AM57 °FScattered clouds.9 mph63%29.98 "HgN/A
11:20 AM55 °FScattered clouds.7 mph67%29.98 "HgN/A
10:50 AM55 °FPassing clouds.8 mph72%30.01 "HgN/A
10:20 AM55 °FPassing clouds.5 mph72%30.01 "HgN/A
9:50 AM54 °FPassing clouds.6 mph77%30.01 "HgN/A
9:20 AM54 °FPassing clouds.7 mph77%30.01 "HgN/A
8:50 AM52 °FPassing clouds.6 mph94%30.01 "HgN/A
8:20 AM50 °FPassing clouds.3 mph94%29.98 "HgN/A
7:50 AM48 °FLight fog.3 mph100%29.98 "HgN/A
7:20 AM48 °FCool.2 mph100%29.98 "Hg4 mi
6:50 AM48 °FFog.2 mph94%29.98 "Hg1 mi
6:20 AM46 °FFog.2 mph100%29.98 "Hg1 mi
5:50 AM48 °FFog.2 mph94%29.98 "Hg1 mi
5:20 AM48 °FClear.2 mph100%29.98 "HgN/A
4:50 AM48 °FPassing clouds.2 mph100%29.98 "HgN/A
4:20 AM50 °FClear.2 mph94%29.98 "HgN/A
3:50 AM50 °FPassing clouds.No wind94%29.98 "HgN/A
3:20 AM50 °FPassing clouds.No wind94%29.98 "Hg5 mi
2:50 AM50 °FPassing clouds.No wind94%29.98 "HgN/A
2:20 AM50 °FPassing clouds.3 mph94%29.98 "HgN/A
1:50 AM50 °FLight rain. Partly cloudy.2 mph94%30.01 "HgN/A
1:20 AM50 °FLight rain. Partly cloudy.5 mph94%30.01 "HgN/A
12:50 AM50 °FPassing clouds.5 mph88%30.01 "HgN/A
12:20 AM50 °FPassing clouds.5 mph88%30.01 "HgN/A
11:50 PM
Wed, Sep 2
50 °FPartly cloudy.5 mph88%30.01 "HgN/A
11:20 PM50 °FPassing clouds.5 mph88%30.01 "HgN/A
10:50 PM52 °FPassing clouds.5 mph82%30.04 "HgN/A
10:20 PM50 °FPassing clouds.5 mph88%30.04 "HgN/A
9:50 PM50 °FPassing clouds.6 mph88%30.04 "HgN/A
9:20 PM52 °FPassing clouds.5 mph82%30.04 "HgN/A
8:50 PM54 °FPassing clouds.7 mph77%30.04 "HgN/A
8:20 PM54 °FPassing clouds.8 mph82%30.04 "HgN/A
Weather by CustomWeather, © 2015

See weather overviewHow to use our weather pages